Regional Weather Roundup
Issued by NWS Green Bay, WI

Home | Current Version | Previous Version | Text Only | Print | Product List | Glossary On
Versions: 1 2 3 4 5 6 7 8 9 10 11 12 13 14 15 16 17 18 19 20 21 22 23 24 25 26 27 28 29 30 31 32 33 34 35 36 37 38 39 40 41 42 43 44 45 46 47 48 49 50
000
ASUS43 KGRB 290110
RWRGRB

NORTH-CENTRAL AND NORTHEAST WISCONSIN REGIONAL WEATHER ROUNDUP
NATIONAL WEATHER SERVICE GREEN BAY WI
800 PM CDT MON JUL 28 2014

WIZ005-009-010>012-018-019-290200-
NORTH CENTRAL WISCONSIN

CITY           SKY/WX    TMP DP  RH WIND       PRES   REMARKS
IRONWOOD       NOT AVBL
MANITOWISH WTR CLOUDY    64  56  76 CALM      30.08S
ARBOR VITAE    CLOUDY    65  53  67 CALM      30.08S
EAGLE RIVER    RAIN      63  52  67 NW6       30.08R
LAND O LAKES   CLOUDY    62  54  76 NW3       30.08S
RHINELANDER    PTCLDY    63  55  75 W5        30.09S
PHILLIPS       CLEAR     65  56  74 CALM      30.09S
ANTIGO         MOCLDY    63  53  70 NW7       30.08S
TOMAHAWK       CLEAR     61  55  81 CALM      30.09S
MERRILL        PTCLDY    64  56  74 W3        30.09S
$$

WIZ013-073-290200-
NORTHEAST WISCONSIN

CITY           SKY/WX    TMP DP  RH WIND       PRES   REMARKS
IRON MOUNTAIN  CLOUDY    67  52  58 W5        30.02F
MARINETTE      MOCLDY    64  55  72 SW3       30.01F
OCONTO         CLOUDY    65  57  74 CALM      30.03S
$$

WIZ017-030-035>037-045-290200-
CENTRAL WISCONSIN

CITY           SKY/WX    TMP DP  RH WIND       PRES   REMARKS
MEDFORD        CLOUDY    64  55  71 W3        30.10F
WAUSAU         CLOUDY    65  55  70 W9        30.06F
MOSINEE        CLOUDY    66  54  63 NW6       30.10S
MARSHFIELD     CLOUDY    67  55  65 NW5       30.09F
WISC RAPIDS    CLOUDY    68  55  63 NW5       30.10S
STEVENS POINT  CLOUDY    67  52  59 CALM      30.09S
WAUPACA        CLOUDY    71  53  52 CALM      30.06S
SHAWANO        CLOUDY    68  56  65 W3        30.05F
CLINTONVILLE   MOCLDY    68  52  56 W5        30.05F
$$

WIZ038-039-048-051-290200-
FOX VALLEY

CITY           SKY/WX    TMP DP  RH WIND       PRES   REMARKS
NWS GREEN BAY  MOCLDY    66  56  70 W5        30.04S
APPLETON       MOCLDY    66  52  59 NW6       30.06S
OSHKOSH        CLOUDY    69  52  54 N7        30.05S
FOND DU LAC    CLOUDY    69  51  52 N6        30.05S
$$

WIZ022-050-052-290200-
EAST CENTRAL WISCONSIN

CITY           SKY/WX    TMP DP  RH WIND       PRES   REMARKS
STURGEON BAY   MOCLDY    59  48  67 S3        30.04S
MANITOWOC      MOCLDY    60  49  66 SW3       30.05S
SHEBOYGAN      CLOUDY    61  51  70 SW6       30.05F
$$

LMZ563-521-522-541>543-290200-
LAKESHORE

STATION/POSITION TIME  TEMP    WIND        PRES    VSBY  WAVE
                       AIR SEA DIR/SP/G                  HT/PER
                 (UTC) (F)     (DEG/KT/KT) (MB)    (MI)  (FT/S)
SHEBOYGAN LKSHOR 0100   60     170/  5/  6 1017.9R
KEWAUNEE LKSHORE 0100   55     180/  4/  5 1017.9F
TWO RIVERS CG    0000   57 61                N/A       6   0
NORTHPORT PIER   0100   64     250/  2/  4 1016.3S
N MID LAKE BUOY  0100   56 54  240/ 10/ 12 1015.6F         1/ 3
S GREEN BAY BUOY 0100   67 67  290/  6     1017.7S
SISTER BAY LKSHO 0100   65     250/  6/  6   N/A
STURGEON BAY CG  0000   55 50  180/  7     1017.8      6   2
CHAMBERS ISLAND  0100   64     210/  4/  6 1016.6S
MENOMINEE LKSHOR 0100   67     210/  4/  5 1017.2S
$$


USA.gov is the U.S. government's official web portal to all federal, state and local government web resources and services.